Погода Алматы

Погода Алматы : погода сейчас, прогноз погоды и архив. Всё, что Вы хотите узнать о погоде Алматы!

Поиск расширенной информации на нашем сайте:

Другие новости

Новости СМИ2

Главная страница сайта

Новости сайта

03.07.2017

Напоминаем, что на нашем специализированном сайте Метеоцентр.Азия вы можете получить высокодетализированные автоматические прогнозы погоды по пунктам России, СНГ и мира в авиационном формате (включающие направление и скорость ветра, видимость, явления погоды, количество и форму облачности, нижнюю и верхнюю границу облачности).

Рекомендуем: Срочный ремонт ноутбуков в павловском посаде избавит вас от лишних хлопот.

Погода Алматы - сегодня

Время (UTC), дата Ветер
(°,м/с) 
Видим.   Явления Облачность Т
(°С)
Тd
(°С)
f(%) Тe
(°С)
Pmin
(гПа)
dP
(гПа)
Po
(мм)
O2
(г/м3)
Тmin Tmax R s Состояние
почвы
21 18.09.17 тихо ()   н/о    ясно 
+19.4 +2.3 32 +19  1015.5  -0.9  691  259           
00 19.09.17 тихо () {04}  н/о    8/0 верхняя 
[Ci fib]
+18.4 +1.5 32 +18  1015.8  -0.1  691  260           
03 19.09.17 тихо ()   10 км    1/0 верхняя 
[Ci fib]
+23.2 +3.9 28 +23  1013.3  -0.7  690  256           
06 19.09.17 тихо ()   10 км    ясно 
+26.8 +0.7 18 +27  1014.3  1.9  692  254  +17.5         
09 19.09.17 тихо ()   10 км    ясно 
+29 -0.5 15 +29  1012.6  -0.9  691  252           
12 19.09.17 тихо ()   10 км    ясно 
+26.4 +5.9 27 +26  1013.4  691  253           
15 19.09.17 тихо ()   н/о    ясно 
+20.8 +6.8 40 +21  1017.5  2.1  692  258    +30       
18 19.09.17 тихо ()   н/о    ясно 
+18.4 +1.8 33 +18  1018.8  0.3  693  261    +30       
21 19.09.17 тихо ()   н/о    ясно 
+14.8 +1.3 40 +15  1019.9  -0.1  693  264           
00 20.09.17 тихо () {02}  н/о    ясно 
+12.4 +2.8 52 +12  1021.2  0.5  693  267    +0.8       
03 20.09.17 тихо ()   10 км    ясно 
+18.2 +4.5 40 +18  1019.3  0.1  693  261  +12        сухая 
06 20.09.17 тихо ()   10 км    ясно 
+23.6 +7.1 35 +24  1017  -0.4  693  256  +12.1         
09 20.09.17 тихо ()   10 км    ясно 
+25.6 +5.1 27 +26  1014.9  -1.4  692  254           
12 20.09.17 тихо ()   10 км    ясно 
+23.3 +3.1 27 +23  1015.1  -0.5  691  256           
15 20.09.17 тихо ()   н/о    ясно 
+16.4 +3.5 42 +16  1018.6  1.1  692  262    +26.1       
18 20.09.17 тихо ()   н/о    ясно 
+14.3 +2.4 45 +14  1017.9  -1.3  691  264    +26.1       
21 20.09.17 тихо ()   н/о    ясно 
+12.3 +2.4 51 +12  1017.1  -1.4  690  266           
00 21.09.17 тихо () {03}  н/о    ясно 
+9.9 +3.8 66 +10  1017.2  -0.6  690  267           
03 21.09.17 тихо ()   10 км    ясно 
+16.3 +1.9 38 +16  1014.9  -0.2  690  262           
06 21.09.17 тихо ()   10 км    ясно 
+21.8 +1 25 +22  1011.9  -1  689  257  +9.5         
09 21.09.17 тихо ()   10 км    1/1 1000 м 
[Cu med, cong]
+24.1 +10.5 42 +28  1009.3  -1.4  688  253           
12 21.09.17 тихо ()   10 км    3/0 верхняя 
[Ci fib]
+22.4 +4.7 32 +22  1010.3  0.2  688  255           
15 21.09.17 тихо ()   н/о    ясно 
+18 +3.4 38 +18  1013.2  1.2  689  260    +25.8       
18 21.09.17 тихо ()   н/о    ясно 
+16.2 +4 44 +16  1013.1  -0.5  688  261    +25.8       
21 21.09.17 тихо ()   н/о    ясно 
+15.8 +3.7 44 +16  1012.6  -0.7  688  261           
Время (UTC), дата Ветер
(°,м/с) 
Видим.   Явления Облачность Т
(°С)
Тd
(°С)
f(%) Тe
(°С)
Pmin
(гПа)
dP
(гПа)
Po
(мм)
O2
(г/м3)
Тmin Tmax R s Состояние
почвы

Для получения пояснительной информации подведите курсор к названию столбца.

ПОГОДА Алматы - архив

Всё, что Вы хотите узнать о погоде Алматы - удобно и подробно!

Выберите нужную дату (начиная с 1 января 2015* года) и нажмите кнопку "Найти".
Будут отображены архивные сводки погоды по пункту Алматы, начиная с указанной даты.


Отображать данные в формате CSV (для использования в таблицах Excel)


Внимание! Наш архив погоды предназначен исключительно для личного некоммерческого использования в познавательных целях. Если Вам необходимы официальные справки о состоянии погоды (для производственных, юридических, коммерческих и т.п. целей), обращайтесь в органы Росгидромета.

*Примечание: данная дата относится к архиву по метеостанциям СССР (Россия, СНГ, Балтия).
Архив по метеостанциям Зарубежной Европы и Азии (кроме Китая) хранится 10 дней, по другим регионам земного шара (Китай, Африка, Америка, Австралия, Океания) - 1 день.

Алматы - район местоположения метеостанции


Название, широта, долгота, высота метеостанции:
Алматы (город) 43.2°ш. 76.9°д. 851 м над ур. моря [Казахстан]

Дополнительная информация

В oтличие oт бoльшинства пoгoдных сайтoв мы публикуем пoдрoбную метеoинфoрмацию в детальнoм прoфессиoнальнoм фoрмате.

Характеристики температуры и влажнoсти вoздуха измеряются на высoте 2 м в тени вдали oт зданий и деревьев.
Скoрoсть ветра измеряется на высoте 10 м (на урoвне рoста челoвека скoрoсть ветра ниже в 1.5-2 раза). Если метеoстанция нахoдится в гoрoде или в лесу, тo скoрoсть ветра занижена на 2-4 м/с пo сравнению с oткрытым местoм. Скoрoсть ветра над акватoриями крупных рек и oзёр, а также на вершинах хoлмoв на 2-5 м/с выше, чем в oбычных услoвиях.
Атмoсфернoе давление в разных тoчках местнoсти мoжет значительнo oтличаться oт давления на метеoстанции, в зависимoсти oт услoвий рельефа (при пoдъёме на 10 м давление пoнижается примернo на 1 мм рт.ст.).